Location: Leipzig
(51.3392°N, 12.3528°E)
Time: 04:31:32
(UTC+01:00)

ISS - Pass Details

Date: 06 January 2018
Orbit: 401 x 406 km, 51.6° (Epoch: 17 January)

Event Time Altitude Azimuth Distance (km) Brightness Sun altitude
Exits shadow 06:48:22 22° 278° (W) 939 -2.6 -12.6°
Maximum altitude 06:50:20 89° 4° (N) 412 -3.9 -12.3°
Drops below altitude 10° 06:53:38 10° 98° (E) 1,468 0.4 -11.8°
Sets 06:55:43 0° 99° (E) 2,328 1.8 -11.5°
